EW3708 Weather Reports


time (UTC)temp
C
wind
direction
speed
KPH
gust
KPH
rain 1hr
cm
rain 24hr
cm
rain mn
cm
humidity
%
barometer
mb
20260510103022 10 156 0.0 3.2 0.00 1.07 0.00 95 1010.6
20260510101521 10 156 0.0 1.6 0.00 1.07 0.00 95 1010.4
20260510100021 10 156 0.0 1.6 0.00 1.07 0.00 95 1010.4
20260510094539 9 156 1.6 4.8 0.00 1.07 0.00 95 1010.4
20260510093020 9 154 1.6 4.8 0.00 1.07 0.00 95 1010.3
20260510091523 9 189 0.0 3.2 0.00 1.07 0.00 95 1010.2
20260510090019 9 284 0.0 3.2 0.00 1.07 0.00 94 1010.0
20260510084518 9 284 0.0 1.6 0.00 1.07 0.00 94 1009.8
20260510083015 9 284 0.0 1.6 0.00 1.07 0.00 95 1009.6
20260510081517 10 284 0.0 1.6 0.00 1.07 0.00 95 1009.8
20260510080015 10 284 0.0 1.6 0.00 1.07 0.00 95 1009.8
20260510074513 10 284 0.0 1.6 0.00 1.07 0.00 95 1009.7
20260510073017 10 284 1.6 3.2 0.00 1.07 0.00 95 1010.0
20260510071512 10 284 0.0 3.2 0.00 1.07 0.00 95 1010.5
20260510070020 10 284 0.0 1.6 0.00 1.07 0.00 95 1010.8
20260510064510 10 284 0.0 1.6 0.00 1.07 0.00 94 1010.9
20260510063009 10 284 0.0 1.6 0.00 1.07 0.00 94 1010.9
20260510061508 10 284 0.0 6.4 0.00 1.07 0.00 95 1010.8
20260510060009 10 144 0.0 4.8 0.00 1.07 0.00 95 1010.4
20260510054506 10 144 0.0 3.2 0.00 1.07 0.00 95 1010.4
20260510053023 10 144 0.0 3.2 0.00 1.07 0.00 95 1010.6
20260510051504 10 144 0.0 4.8 0.00 1.07 0.00 95 1010.6
20260510050005 10 238 0.0 1.6 0.00 1.07 0.00 95 1010.4
20260510044559 10 238 0.0 4.8 0.00 1.07 0.00 94 1010.3
20260510043104 10 136 0.0 4.8 0.00 1.07 0.00 94 1010.0
20260510041555 10 178 1.6 4.8 0.00 1.07 0.00 94 1009.8
20260510040053 10 130 0.0 4.8 0.00 1.07 0.00 94 1009.9
20260510034552 10 113 1.6 8.0 0.00 1.07 1.07 94 1009.9
20260510033101 10 138 1.6 4.8 0.00 1.07 1.07 94 1009.9
20260510031553 10 150 1.6 3.2 0.00 1.07 1.07 94 1009.9
20260510030051 10 150 1.6 4.8 0.00 1.07 1.07 94 1009.9
20260510024551 10 150 1.6 6.4 0.00 1.07 1.07 94 1009.8
20260510023049 10 148 0.0 3.2 0.00 1.07 1.07 94 1009.9
20260510021552 10 191 1.6 6.4 0.00 1.07 1.07 94 1010.0
20260510020049 9 150 0.0 1.6 0.00 1.07 1.07 92 1010.0
20260510014548 9 150 0.0 3.2 0.00 1.07 1.07 92 1009.8
20260510013051 9 150 0.0 0.0 0.00 1.07 1.07 91 1009.7
20260510011551 10 150 0.0 1.6 0.00 1.07 1.07 91 1009.5
20260510010046 10 150 0.0 1.6 0.00 1.07 1.07 90 1009.4
20260510004545 10 150 0.0 3.2 0.00 1.07 1.07 90 1009.2
20260510003045 11 150 0.0 3.2 0.00 1.07 1.07 89 1009.2
20260510001644 11 150 0.0 0.0 0.00 1.07 1.07 88 1009.2
20260510000050 11 150 0.0 4.8 0.00 1.07 1.07 88 1009.0
20260509234543 12 150 1.6 4.8 0.00 1.07 1.07 87 1008.7
20260509233043 12 152 1.6 3.2 0.00 1.07 1.07 86 1008.6
20260509231544 12 188 0.0 6.4 0.00 1.07 1.07 86 1008.5
20260509230041 12 164 3.2 8.0 0.00 1.07 1.07 84 1008.3
20260509224540 12 128 1.6 11.3 0.00 1.07 1.07 83 1008.6
20260509223040 12 155 1.6 6.4 0.00 1.07 1.07 85 1008.6
20260509221538 12 198 4.8 8.0 0.00 1.07 1.07 85 1008.5
20260509220037 12 146 3.2 6.4 0.00 1.07 1.07 86 1008.6
20260509214537 12 213 1.6 8.0 0.00 1.07 1.07 87 1008.7
20260509213034 12 225 3.2 14.5 0.00 1.07 1.07 86 1008.8
20260509211529 12 185 1.6 6.4 0.00 1.07 1.07 91 1009.0
20260509210030 11 206 1.6 8.0 0.00 1.07 1.07 92 1009.0
20260509204525 11 160 1.6 4.8 0.03 1.07 1.07 93 1009.1
20260509203024 10 153 3.2 9.7 0.03 1.07 1.07 93 1009.1
20260509201520 10 243 0.0 4.8 0.08 1.07 1.07 93 1009.1
20260509200020 10 200 1.6 3.2 0.13 1.07 1.07 93 1009.2
20260509194516 10 200 0.0 3.2 0.13 1.04 1.04 93 1009.6
20260509193023 10 180 1.6 4.8 0.15 1.04 1.04 93 1009.9
20260509191512 10 176 3.2 8.0 0.15 0.99 0.99 93 1010.1
20260509190011 10 218 1.6 8.0 0.18 0.94 0.94 93 1010.3
20260509184527 10 154 0.0 4.8 0.23 0.91 0.91 92 1010.2
20260509183009 10 198 0.0 6.4 0.28 0.89 0.89 92 1010.2
20260509181508 10 193 3.2 11.3 0.30 0.84 0.84 92 1010.4
20260509180013 10 147 1.6 12.9 0.30 0.76 0.76 92 1010.3
20260509174507 10 142 4.8 9.7 0.30 0.71 0.69 92 1010.3
20260509173006 10 154 3.2 11.3 0.25 0.64 0.61 92 1010.4
20260509171505 10 194 3.2 8.0 0.23 0.56 0.53 92 1010.5
20260509170009 10 167 4.8 9.7 0.20 0.48 0.46 91 1010.4
20260509164504 10 234 3.2 11.3 0.15 0.41 0.38 92 1010.5
20260509163003 10 163 4.8 11.3 0.15 0.38 0.36 92 1010.5
20260509161502 10 131 4.8 16.1 0.10 0.33 0.30 91 1010.5
20260509160003 10 146 4.8 9.7 0.05 0.28 0.25 91 1010.6
20260509154502 10 165 3.2 14.5 0.05 0.25 0.23 91 1010.8
20260509153118 10 157 6.4 11.3 0.05 0.23 0.20 92 1010.8
20260509151600 10 181 1.6 4.8 0.08 0.23 0.20 91 1010.6
20260509150058 10 109 1.6 6.4 0.10 0.23 0.20 91 1010.4
20260509144502 10 203 0.0 3.2 0.13 0.20 0.18 90 1010.7
20260509143001 10 205 0.0 4.8 0.10 0.18 0.15 90 1011.1
20260509141600 10 159 1.6 11.3 0.05 0.13 0.10 89 1011.1
20260509134557 10 134 0.0 3.2 0.03 0.08 0.05 88 1010.5
20260509133057 10 114 0.0 3.2 0.03 0.08 0.05 89 1010.5
20260509131553 9 104 1.6 4.8 0.03 0.08 0.05 90 1010.5
20260509124553 8 121 0.0 3.2 0.00 0.05 0.03 90 1010.7
20260509123050 8 121 1.6 3.2 0.00 0.05 0.03 91 1010.6
20260509121547 8 265 0.0 3.2 0.00 0.05 0.03 93 1010.8
20260509120042 8 265 0.0 3.2 0.00 0.05 0.03 93 1011.0
20260509114549 8 265 0.0 1.6 0.03 0.05 0.03 93 1010.8
20260509113043 8 265 0.0 1.6 0.03 0.05 0.03 93 1010.8
20260509111540 7 265 0.0 4.8 0.03 0.05 0.03 93 1010.7
20260509110038 7 266 0.0 1.6 0.03 0.05 0.03 93 1010.9
20260509104538 7 266 0.0 3.2 0.00 0.03 0.00 92 1010.6